Location: Kampung Segan
(3.1399°N, 113.1002°E)
Time: 13:17:47
(UTC+00:00)

Skynet4D Del rocket - Pass Details

Date: 05 August 2024
Orbit: 763 x 1289 km, 26.9° (Epoch: 07 September)

Event Time Altitude Azimuth Distance (km) Brightness Sun altitude
Exits shadow 21:48:35 12° 243° (WSW) 2,206 5.2 -9.8°
Maximum altitude 21:53:45 86° 331° (NNW) 834 3.7 -8.6°
Drops below altitude 10° 21:59:53 10° 60° (ENE) 2,586 7.8 -7.1°
Sets 22:02:39 0° 61° (ENE) 3,611 9.0 -6.5°
